IZ2OSD Weather Reports


time (UTC)temp
C
wind
direction
speed
KPH
gust
KPH
rain 1hr
cm
rain 24hr
cm
rain mn
cm
humidity
%
barometer
mb
20260902144740 30 315 0.0 3.2 0.00 0.00 0.00 47 1016.6
20260902143728 31 315 0.0 1.6 0.00 0.00 0.00 49 1016.8
20260902142724 31 337 0.0 3.2 0.00 0.00 0.00 44 1016.9
20260902141721 31 0.0 0.0 0.00 0.00 0.00 45 1016.8
20260902140717 31 0.0 0.0 0.00 0.00 0.00 47 1017.0
20260902135714 31 315 1.6 3.2 0.00 0.00 0.00 47 1016.9
20260902134710 31 315 1.6 3.2 0.00 0.00 0.00 49 1016.7
20260902133707 31 0.0 0.0 0.00 0.00 0.00 49 1017.0
20260902132703 31 315 1.6 3.2 0.00 0.00 0.00 49 1017.0
20260902131659 31 315 0.0 3.2 0.00 0.00 0.00 50 1017.3
20260902123924 30 90 1.6 3.2 0.00 0.00 0.00 54 1017.5
20260902122920 29 315 4.8 4.8 0.00 0.00 0.00 55 1017.6
20260902121916 30 315 0.0 3.2 0.00 0.00 0.00 53 1017.9
20260902120913 30 135 3.2 3.2 0.00 0.00 0.00 54 1017.8
20260902115910 30 292 3.2 4.8 0.00 0.00 0.00 53 1017.9
20260902114905 30 292 1.6 4.8 0.00 0.00 0.00 55 1018.3
20260902113902 31 0.0 1.6 0.00 0.00 0.00 54 1018.3
20260902112859 29 112 3.2 4.8 0.00 0.00 0.00 56 1018.4
20260902111414 30 315 0.0 3.2 0.00 0.00 0.00 54 1018.6
20260902110412 30 315 0.0 1.6 0.00 0.00 0.00 55 1018.5
20260902104500 30 225 0.0 1.6 0.00 0.00 0.00 56 1018.8
20260902103436 30 247 0.0 1.6 0.00 0.00 0.00 54 1018.8
20260902102426 27 90 1.6 4.8 0.00 0.00 0.00 59 1019.0
20260902101423 27 22 0.0 3.2 0.00 0.00 0.00 61 1019.0
20260902100419 27 315 1.6 3.2 0.00 0.00 0.00 59 1019.1
20260902095416 27 315 4.8 9.7 0.00 0.00 0.00 60 1019.0
20260902094412 26 337 4.8 9.7 0.00 0.00 0.00 61 1019.0
20260902092928 28 202 0.0 1.6 0.00 0.00 0.00 57 1019.2
20260902091925 27 11 3.2 6.4 0.00 0.00 0.00 61 1019.1
20260902090955 27 315 4.8 6.4 0.00 0.00 0.00 61 1019.4
20260902085912 27 0.0 1.6 0.00 0.00 0.00 62 1019.2
20260902084907 26 0 3.2 9.7 0.00 0.00 0.00 64 1019.2
20260902083902 25 315 3.2 3.2 0.00 0.00 0.00 66 1019.1
20260902082859 26 112 4.8 14.5 0.00 0.00 0.00 66 1019.1
20260902081850 26 315 6.4 12.9 0.00 0.00 0.00 65 1019.0
20260902080910 26 315 3.2 6.4 0.00 0.00 0.00 64 1019.1
20260902075841 26 135 1.6 4.8 0.00 0.00 0.00 62 1019.0
20260902074839 25 22 0.0 3.2 0.00 0.00 0.00 67 1019.0
20260902073835 25 315 1.6 4.8 0.00 0.00 0.00 65 1018.8
20260902072827 24 315 4.8 9.7 0.00 0.00 0.00 68 1018.6
20260902071823 25 337 4.8 9.7 0.00 0.00 0.00 70 1018.7
20260902070819 24 90 0.0 3.2 0.00 0.00 0.00 72 1018.6
20260902065815 23 292 1.6 4.8 0.00 0.00 0.00 73 1018.6
20260902064813 23 315 4.8 9.7 0.00 0.00 0.00 73 1018.7
20260902063809 23 315 3.2 4.8 0.00 0.00 0.00 75 1018.5
20260902062807 23 315 3.2 4.8 0.00 0.00 0.00 75 1018.5
20260902061802 22 315 3.2 4.8 0.00 0.00 0.00 77 1018.7
20260902060752 22 315 3.2 4.8 0.00 0.00 0.00 79 1018.4
20260902055749 21 315 3.2 4.8 0.00 0.00 0.00 81 1018.5
20260902054741 21 315 4.8 4.8 0.00 0.00 0.00 82 1018.3
20260902053740 21 0.0 0.0 0.00 0.00 0.00 82 1018.4
20260902052737 21 0.0 0.0 0.00 0.00 0.00 83 1018.3
20260902051735 21 0.0 0.0 0.00 0.00 0.00 83 1018.1
20260902050727 21 315 1.6 3.2 0.00 0.00 0.00 83 1017.8
20260902045722 21 0.0 0.0 0.00 0.00 0.00 83 1018.1
20260902044718 21 0.0 0.0 0.00 0.00 0.00 82 1018.2
20260902043714 21 0.0 0.0 0.00 0.00 0.00 82 1018.1
20260902042712 21 0.0 0.0 0.00 0.00 0.00 82 1017.6
20260902041708 21 0.0 0.0 0.00 0.00 0.00 81 1017.8
20260902040705 21 0.0 1.6 0.00 0.00 0.00 82 1017.7
20260902035700 21 0.0 0.0 0.00 0.00 0.00 81 1017.8
20260902034326 21 315 3.2 4.8 0.00 0.00 0.00 80 1017.9
20260902033321 21 0.0 0.0 0.00 0.00 0.00 81 1017.8
20260902032317 21 0.0 0.0 0.00 0.00 0.00 80 1017.8
20260902031314 21 0.0 0.0 0.00 0.00 0.00 80 1017.7
20260902030311 21 0.0 0.0 0.00 0.00 0.00 80 1017.9
20260902025306 21 315 1.6 3.2 0.00 0.00 0.00 79 1017.8
20260902024257 22 0.0 0.0 0.00 0.00 0.00 79 1017.9
20260902023253 21 315 1.6 3.2 0.00 0.00 0.00 80 1017.6
20260902022250 21 315 1.6 3.2 0.00 0.00 0.00 79 1017.8
20260902021301 22 315 1.6 3.2 0.00 0.00 0.00 78 1017.4
20260902020239 22 315 1.6 3.2 0.00 0.00 0.00 78 1017.7
20260902015233 22 315 1.6 3.2 0.00 0.00 0.00 78 1017.5
20260902014229 22 315 3.2 4.8 0.00 0.00 0.00 78 1017.8
20260902013226 22 315 4.8 6.4 0.00 0.00 0.00 77 1017.6
20260902012257 22 337 1.6 3.2 0.00 0.00 0.00 76 1017.8
20260902011213 22 315 3.2 4.8 0.00 0.00 0.00 77 1017.7
20260902010203 22 315 3.2 4.8 0.00 0.00 0.00 77 1017.8
20260902005200 22 315 3.2 4.8 0.00 0.00 0.00 77 1017.7
20260902004156 22 315 1.6 3.2 0.00 0.00 0.00 77 1018.1
20260902003152 22 315 3.2 4.8 0.00 0.00 0.00 77 1017.8
20260902002149 22 315 1.6 3.2 0.00 0.00 0.00 77 1017.8
20260902001137 22 315 0.0 3.2 0.00 0.00 0.00 78 1017.8
20260902000136 22 315 0.0 3.2 0.00 0.00 0.00 78 1017.8
20260901235130 22 315 1.6 3.2 0.00 0.00 0.00 76 1017.7
20260901234127 22 315 1.6 4.8 0.00 0.00 0.00 76 1018.1
20260901233124 23 315 1.6 6.4 0.00 0.00 0.00 76 1017.7
20260901232116 23 0.0 0.0 0.00 0.00 0.00 75 1017.5
20260901231111 23 0.0 0.0 0.00 0.00 0.00 76 1017.8
20260901230107 23 337 0.0 3.2 0.00 0.00 0.00 76 1017.7
20260901225104 23 315 1.6 3.2 0.00 0.00 0.00 76 1018.2
20260901224100 23 315 0.0 3.2 0.00 0.00 0.00 76 1018.1
20260901222311 23 315 3.2 4.8 0.00 0.00 0.00 74 1017.6
20260901221309 23 315 3.2 4.8 0.00 0.00 0.00 75 1017.6
20260901220324 23 315 3.2 4.8 0.00 0.00 0.00 75 1017.4
20260901215300 23 315 1.6 4.8 0.00 0.00 0.00 75 1017.6
20260901212223 23 337 3.2 4.8 0.00 0.00 0.00 73 1017.6
20260901205558 23 315 3.2 4.8 0.00 0.00 0.00 72 1017.6
20260901202731 24 315 1.6 3.2 0.00 0.00 0.00 71 1017.4
20260901201730 25 315 1.6 3.2 0.00 0.00 0.00 70 1017.4
20260901200744 25 315 1.6 3.2 0.00 0.00 0.00 70 1017.4
20260901195305 25 315 1.6 4.8 0.00 0.00 0.00 70 1017.2
20260901194251 25 315 3.2 4.8 0.00 0.00 0.00 69 1017.1
20260901193248 25 0.0 0.0 0.00 0.00 0.00 68 1017.3
20260901192306 25 315 1.6 3.2 0.00 0.00 0.00 68 1017.1
20260901191238 25 315 1.6 3.2 0.00 0.00 0.00 68 1017.0
20260901190235 25 315 1.6 3.2 0.00 0.00 0.00 67 1016.9
20260901185247 26 0.0 0.0 0.00 0.00 0.00 66 1016.6
20260901184225 26 0.0 0.0 0.00 0.00 0.00 66 1016.7
20260901183220 26 0.0 0.0 0.00 0.00 0.00 65 1016.7
20260901182216 26 0.0 0.0 0.00 0.00 0.00 65 1016.6
20260901181212 27 0.0 0.0 0.00 0.00 0.00 63 1016.5
20260901175553 27 0.0 1.6 0.00 0.00 0.00 59 1016.4
20260901174549 27 315 1.6 3.2 0.00 0.00 0.00 58 1016.5
20260901173544 27 315 3.2 4.8 0.00 0.00 0.00 58 1016.2
20260901172541 28 315 3.2 4.8 0.00 0.00 0.00 57 1016.2
20260901171557 28 315 3.2 4.8 0.00 0.00 0.00 57 1016.3
20260901170535 28 315 3.2 6.4 0.00 0.00 0.00 56 1016.4
20260901165531 28 0 0.0 4.8 0.00 0.00 0.00 56 1016.4
20260901164528 28 315 0.0 1.6 0.00 0.00 0.00 56 1016.2
20260901163525 28 0.0 1.6 0.00 0.00 0.00 56 1016.4
20260901161645 28 112 3.2 6.4 0.00 0.00 0.00 54 1016.6
20260901160100 28 337 3.2 6.4 0.00 0.00 0.00 55 1016.3
20260901154107 29 112 1.6 3.2 0.00 0.00 0.00 54 1016.3
20260901153106 28 315 1.6 3.2 0.00 0.00 0.00 55 1016.2
20260901152101 28 112 0.0 1.6 0.00 0.00 0.00 55 1016.5
20260901150746 28 135 4.8 6.4 0.00 0.00 0.00 55 1016.5
20260901145757 28 315 4.8 9.7 0.00 0.00 0.00 54 1016.7